Starlink 30805

operational
NORAD ID: 58214 Int'l Des: 2023-170 Owner: SPXS Country: US Constellation: starlink
LEOCIRCULAR

Über Starlink 30805

Beschreibung wird geladen...

Live-Position

3D-Globus wird geladen...

Nächste Überflüge

Höhenverlauf

Altitude vs Time

uPlot chart will show altitude changes over time

Zweizeiliger Elementsatz

1 58214U 23170J 25351.21433511 .00000087 00000-0 21479-4 0 9991
2 58214 43.0052 284.0179 0000711 276.2493 83.8269 15.02538476117870
Epoch: 17. Dez. 2025 • Age: 19 hours

Aktueller Status

Höhe 559.1 km
Geschwindigkeit 7.58 km/s
Subsatellitenpunkt -2.67°S, 174.12°W
Startdatum 4. Nov. 2023
Alter 2.1 years
Typ internet

Technische Details

Klassifizierung Payload
Masse 730.00 kg
Trockenmasse 700.00 kg
Gesamtmasse 730.00 kg
Länge 0.30 m
Durchmesser 4.10 m
Spannweite 29.00 m
Form Box + pan
Hersteller SPXS
Bus-Typ Starlink V2M
Phasenstatus In Orbit
Besitzer/Staat SPXS/US

Große Konstellationen

Loading constellations...